TimePST,TemperatureF,Dew PointF,Humidity,Sea Level PressureIn,VisibilityMPH,Wind Direction,Wind SpeedMPH,Gust SpeedMPH,PrecipitationIn,Events,Conditions,WindDirDegrees,DateUTC
12:17 AM,51.8,48.2,88,30.33,10.0,Calm,Calm,-,N/A,,Overcast,0,2013-03-02 08:17:00
12:53 AM,50.0,48.0,93,30.33,10.0,Calm,Calm,-,N/A,,Overcast,0,2013-03-02 08:53:00
1:42 AM,50.0,48.2,94,30.32,10.0,Calm,Calm,-,N/A,,Overcast,0,2013-03-02 09:42:00
1:53 AM,50.0,48.0,93,30.32,10.0,Calm,Calm,-,N/A,,Overcast,0,2013-03-02 09:53:00
2:20 AM,50.0,48.2,94,30.31,10.0,Calm,Calm,-,N/A,,Overcast,0,2013-03-02 10:20:00
2:53 AM,48.9,46.9,93,30.29,10.0,Calm,Calm,-,N/A,,Overcast,0,2013-03-02 10:53:00
3:08 AM,48.2,46.4,93,30.28,10.0,Calm,Calm,-,N/A,,Overcast,0,2013-03-02 11:08:00
3:53 AM,46.9,46.0,97,30.27,10.0,Calm,Calm,-,N/A,,Overcast,0,2013-03-02 11:53:00
4:53 AM,46.9,46.0,97,30.26,10.0,Calm,Calm,-,N/A,,Mostly Cloudy,0,2013-03-02 12:53:00
5:53 AM,46.0,46.0,100,30.25,10.0,Calm,Calm,-,N/A,,Overcast,0,2013-03-02 13:53:00
6:53 AM,45.0,45.0,100,30.24,10.0,Calm,Calm,-,N/A,,Mostly Cloudy,0,2013-03-02 14:53:00
7:53 AM,46.9,45.0,93,30.24,10.0,Calm,Calm,-,N/A,,Partly Cloudy,0,2013-03-02 15:53:00
8:38 AM,46.4,44.6,93,30.25,10.0,SW,3.5,-,N/A,,Mostly Cloudy,230,2013-03-02 16:38:00
8:53 AM,48.0,46.0,93,30.24,10.0,Calm,Calm,-,N/A,,Mostly Cloudy,0,2013-03-02 16:53:00
9:05 AM,48.2,46.4,93,30.24,10.0,Calm,Calm,-,N/A,,Mostly Cloudy,0,2013-03-02 17:05:00
9:17 AM,48.2,46.4,93,30.25,10.0,Calm,Calm,-,N/A,,Mostly Cloudy,0,2013-03-02 17:17:00
9:53 AM,50.0,46.0,86,30.25,10.0,Calm,Calm,-,N/A,,Overcast,0,2013-03-02 17:53:00
10:25 AM,51.8,46.4,82,30.24,10.0,SSE,4.6,-,N/A,,Overcast,160,2013-03-02 18:25:00
10:53 AM,51.1,46.9,86,30.23,10.0,South,6.9,-,N/A,,Overcast,180,2013-03-02 18:53:00
11:53 AM,53.1,46.9,80,30.23,10.0,SSW,4.6,-,N/A,,Overcast,200,2013-03-02 19:53:00
12:53 PM,54.0,46.0,75,30.22,10.0,Variable,5.8,-,N/A,,Overcast,0,2013-03-02 20:53:00
1:53 PM,54.0,46.0,75,30.21,10.0,Variable,4.6,-,N/A,,Overcast,0,2013-03-02 21:53:00
2:53 PM,54.0,46.0,75,30.20,10.0,SSW,4.6,-,N/A,,Overcast,200,2013-03-02 22:53:00
3:53 PM,54.0,48.0,80,30.19,10.0,South,9.2,-,N/A,,Overcast,180,2013-03-02 23:53:00
4:34 PM,53.6,46.4,77,30.19,10.0,SSW,5.8,-,N/A,,Overcast,200,2013-03-03 00:34:00
4:53 PM,53.1,46.9,80,30.19,10.0,WSW,5.8,-,N/A,,Overcast,240,2013-03-03 00:53:00
5:12 PM,51.8,48.2,88,30.19,4.0,West,8.1,-,0.01,Rain,Light Rain,260,2013-03-03 01:12:00
5:53 PM,51.1,48.0,89,30.19,10.0,Variable,3.5,-,0.01,,Overcast,0,2013-03-03 01:53:00
6:53 PM,50.0,46.9,89,30.21,10.0,North,10.4,-,N/A,,Overcast,350,2013-03-03 02:53:00
7:07 PM,48.2,41.0,76,30.21,10.0,NNW,10.4,18.4,N/A,,Overcast,340,2013-03-03 03:07:00
7:53 PM,46.9,39.9,77,30.23,10.0,NNW,10.4,18.4,N/A,,Overcast,340,2013-03-03 03:53:00
8:27 PM,46.4,39.2,76,30.23,10.0,NNW,8.1,-,N/A,,Overcast,340,2013-03-03 04:27:00
8:53 PM,45.0,39.0,80,30.25,10.0,North,5.8,-,0.00,,Overcast,360,2013-03-03 04:53:00
9:53 PM,45.0,37.9,76,30.27,10.0,North,4.6,-,N/A,,Overcast,360,2013-03-03 05:53:00
10:53 PM,42.1,36.0,79,30.27,10.0,Calm,Calm,-,N/A,,Partly Cloudy,0,2013-03-03 06:53:00
11:53 PM,41.0,36.0,82,30.28,10.0,North,3.5,-,N/A,,Mostly Cloudy,360,2013-03-03 07:53:00